Time,TemperatureF,DewpointF,PressureIn,WindDirection,WindDirectionDegrees,WindSpeedMPH,WindSpeedGustMPH,Humidity,HourlyPrecipIn,Conditions,Clouds,dailyrainin,SoftwareType,DateUTC
2013-06-26 00:00:00,66.7,66.5,29.91,NW,315,0.0,0.0,99,0.00,CLR,,0.06,WeatherDisplay:10.37,2013-06-26 04:00:00,
2013-06-26 00:01:00,66.9,66.6,29.91,WNW,286,0.0,0.0,99,0.00,RA,,0.00,WeatherDisplay:10.37,2013-06-26 04:01:00,
2013-06-26 00:02:00,66.6,66.3,29.91,NW,315,0.0,0.0,99,0.00,RA,,0.00,WeatherDisplay:10.37,2013-06-26 04:02:00,
2013-06-26 00:04:00,66.6,66.3,29.91,NW,315,0.0,0.0,99,0.00,RA,,0.00,WeatherDisplay:10.37,2013-06-26 04:04:00,
2013-06-26 00:09:00,66.6,66.3,29.92,West,270,0.0,0.0,99,0.00,RA,,0.00,WeatherDisplay:10.37,2013-06-26 04:09:00,
2013-06-26 00:14:00,66.6,66.3,29.92,NE,45,0.0,0.0,99,0.00,CLR,,0.00,WeatherDisplay:10.37,2013-06-26 04:14:00,
2013-06-26 00:19:00,66.6,66.3,29.92,NE,45,1.1,0.0,99,0.00,CLR,,0.00,WeatherDisplay:10.37,2013-06-26 04:19:00,
2013-06-26 00:24:00,66.4,66.1,29.93,NE,45,0.0,0.0,99,0.00,CLR,,0.00,WeatherDisplay:10.37,2013-06-26 04:24:00,
2013-06-26 00:29:00,66.4,66.1,29.93,North,0,2.3,2.3,99,0.00,CLR,,0.00,WeatherDisplay:10.37,2013-06-26 04:29:00,
2013-06-26 00:34:00,66.4,66.1,29.93,SE,135,1.1,0.0,99,0.00,CLR,,0.00,WeatherDisplay:10.37,2013-06-26 04:34:00,
2013-06-26 00:39:00,66.6,66.3,29.93,East,90,1.1,1.1,99,0.00,CLR,,0.00,WeatherDisplay:10.37,2013-06-26 04:39:00,
2013-06-26 00:44:00,66.6,66.3,29.93,East,90,2.3,2.3,99,0.00,CLR,,0.00,WeatherDisplay:10.37,2013-06-26 04:44:00,
2013-06-26 00:49:00,66.6,66.3,29.92,East,90,0.0,0.0,99,0.00,CLR,,0.00,WeatherDisplay:10.37,2013-06-26 04:49:00,
2013-06-26 00:54:00,66.4,66.1,29.93,North,0,0.0,0.0,99,0.00,CLR,,0.00,WeatherDisplay:10.37,2013-06-26 04:54:00,
2013-06-26 00:59:00,66.4,66.1,29.93,NE,45,0.0,0.0,99,0.00,CLR,,0.00,WeatherDisplay:10.37,2013-06-26 04:59:00,
2013-06-26 01:04:00,66.2,65.9,29.92,NE,45,0.0,0.0,99,0.00,CLR,,0.00,WeatherDisplay:10.37,2013-06-26 05:04:00,
2013-06-26 01:09:00,66.2,65.9,29.93,West,270,0.0,0.0,99,0.00,CLR,,0.00,WeatherDisplay:10.37,2013-06-26 05:09:00,
2013-06-26 01:14:00,66.2,65.9,29.92,West,270,0.0,0.0,99,0.00,CLR,,0.00,WeatherDisplay:10.37,2013-06-26 05:14:00,
2013-06-26 01:19:00,66.2,65.9,29.92,East,90,0.0,0.0,99,0.00,CLR,,0.00,WeatherDisplay:10.37,2013-06-26 05:19:00,
2013-06-26 01:24:00,66.0,65.7,29.92,East,90,0.0,0.0,99,0.00,CLR,,0.00,WeatherDisplay:10.37,2013-06-26 05:24:00,
2013-06-26 01:29:00,66.0,65.7,29.92,East,90,0.0,0.0,99,0.00,CLR,,0.00,WeatherDisplay:10.37,2013-06-26 05:29:00,
2013-06-26 01:34:00,66.0,65.7,29.92,East,90,0.0,0.0,99,0.00,CLR,,0.00,WeatherDisplay:10.37,2013-06-26 05:34:00,
2013-06-26 01:39:00,66.0,65.7,29.92,East,90,0.0,0.0,99,0.00,CLR,,0.00,WeatherDisplay:10.37,2013-06-26 05:39:00,
2013-06-26 01:44:00,66.0,65.7,29.92,East,90,0.0,0.0,99,0.00,CLR,,0.00,WeatherDisplay:10.37,2013-06-26 05:44:00,
2013-06-26 01:49:00,66.0,65.7,29.92,East,90,0.0,0.0,99,0.00,CLR,,0.00,WeatherDisplay:10.37,2013-06-26 05:49:00,
2013-06-26 01:54:00,66.0,65.7,29.91,SW,225,0.0,0.0,99,0.00,CLR,,0.00,WeatherDisplay:10.37,2013-06-26 05:54:00,
2013-06-26 01:59:00,65.8,65.6,29.92,SW,225,0.0,0.0,99,0.00,CLR,,0.00,WeatherDisplay:10.37,2013-06-26 05:59:00,
2013-06-26 02:04:00,65.8,65.6,29.92,SW,225,0.0,0.0,99,0.00,CLR,,0.00,WeatherDisplay:10.37,2013-06-26 06:04:00,
2013-06-26 02:09:00,66.0,65.7,29.92,SW,225,0.0,0.0,99,0.00,CLR,,0.00,WeatherDisplay:10.37,2013-06-26 06:09:00,
2013-06-26 02:14:00,66.0,65.7,29.92,SW,225,0.0,0.0,99,0.00,CLR,,0.00,WeatherDisplay:10.37,2013-06-26 06:14:00,
2013-06-26 02:19:00,66.0,65.7,29.92,SW,225,0.0,0.0,99,0.00,CLR,,0.00,WeatherDisplay:10.37,2013-06-26 06:19:00,
2013-06-26 02:24:00,66.0,65.7,29.91,SW,225,0.0,0.0,99,0.00,CLR,,0.00,WeatherDisplay:10.37,2013-06-26 06:24:00,
2013-06-26 02:29:00,66.0,65.7,29.91,SW,225,0.0,0.0,99,0.00,CLR,,0.00,WeatherDisplay:10.37,2013-06-26 06:29:00,
2013-06-26 02:34:00,66.2,65.9,29.91,West,270,0.0,0.0,99,0.00,CLR,,0.00,WeatherDisplay:10.37,2013-06-26 06:34:00,
2013-06-26 02:39:00,66.2,65.9,29.91,SW,225,0.0,0.0,99,0.00,CLR,,0.00,WeatherDisplay:10.37,2013-06-26 06:39:00,
2013-06-26 02:44:00,66.2,65.9,29.91,SW,225,0.0,0.0,99,0.00,CLR,,0.00,WeatherDisplay:10.37,2013-06-26 06:44:00,
2013-06-26 02:49:00,66.2,65.9,29.91,SW,225,0.0,0.0,99,0.00,CLR,,0.00,WeatherDisplay:10.37,2013-06-26 06:49:00,
2013-06-26 02:54:00,66.2,65.9,29.91,SW,225,0.0,0.0,99,0.00,CLR,,0.00,WeatherDisplay:10.37,2013-06-26 06:54:00,
2013-06-26 02:59:00,66.2,65.9,29.92,SW,225,0.0,0.0,99,0.00,CLR,,0.00,WeatherDisplay:10.37,2013-06-26 06:59:00,
2013-06-26 03:04:00,66.2,65.9,29.92,SW,225,0.0,0.0,99,0.00,CLR,,0.00,WeatherDisplay:10.37,2013-06-26 07:04:00,
2013-06-26 03:09:00,66.2,65.9,29.91,SE,135,0.0,0.0,99,0.00,CLR,,0.00,WeatherDisplay:10.37,2013-06-26 07:09:00,
2013-06-26 03:14:00,66.2,65.9,29.91,SE,135,1.1,0.0,99,0.00,CLR,,0.00,WeatherDisplay:10.37,2013-06-26 07:14:00,
2013-06-26 03:19:00,66.2,65.9,29.92,North,0,1.1,1.1,99,0.00,CLR,,0.00,WeatherDisplay:10.37,2013-06-26 07:19:00,
2013-06-26 03:24:00,66.4,66.1,29.92,East,90,1.1,1.1,99,0.00,CLR,,0.00,WeatherDisplay:10.37,2013-06-26 07:24:00,
2013-06-26 03:29:00,66.4,66.1,29.93,North,0,2.3,2.3,99,0.00,CLR,,0.00,WeatherDisplay:10.37,2013-06-26 07:29:00,
2013-06-26 03:34:00,66.4,66.1,29.93,SE,135,1.1,0.0,99,0.00,CLR,,0.00,WeatherDisplay:10.37,2013-06-26 07:34:00,
2013-06-26 03:39:00,66.2,65.9,29.93,SE,135,1.1,1.1,99,0.00,CLR,,0.00,WeatherDisplay:10.37,2013-06-26 07:39:00,
2013-06-26 03:44:00,66.2,65.9,29.93,East,90,3.5,0.0,99,0.00,CLR,,0.00,WeatherDisplay:10.37,2013-06-26 07:44:00,
2013-06-26 03:49:00,66.4,66.1,29.92,SE,135,1.1,0.0,99,0.00,CLR,,0.00,WeatherDisplay:10.37,2013-06-26 07:49:00,
2013-06-26 03:54:00,66.4,66.1,29.92,SE,135,1.1,0.0,99,0.00,CLR,,0.00,WeatherDisplay:10.37,2013-06-26 07:54:00,
2013-06-26 03:59:00,66.2,65.9,29.92,North,0,1.1,0.0,99,0.00,CLR,,0.00,WeatherDisplay:10.37,2013-06-26 07:59:00,
2013-06-26 04:04:00,66.2,65.9,29.92,NE,45,0.0,0.0,99,0.00,CLR,,0.00,WeatherDisplay:10.37,2013-06-26 08:04:00,
2013-06-26 04:09:00,66.4,66.1,29.92,West,270,1.1,0.0,99,0.00,CLR,,0.00,WeatherDisplay:10.37,2013-06-26 08:09:00,
2013-06-26 04:14:00,66.4,66.1,29.92,East,90,1.1,0.0,99,0.00,CLR,,0.00,WeatherDisplay:10.37,2013-06-26 08:14:00,
2013-06-26 04:19:00,66.4,66.1,29.92,East,90,1.1,0.0,99,0.00,CLR,,0.00,WeatherDisplay:10.37,2013-06-26 08:19:00,
2013-06-26 04:24:00,66.2,65.9,29.92,East,90,1.1,0.0,99,0.00,CLR,,0.00,WeatherDisplay:10.37,2013-06-26 08:24:00,
2013-06-26 04:29:00,66.2,65.9,29.91,SW,225,0.0,0.0,99,0.00,CLR,,0.00,WeatherDisplay:10.37,2013-06-26 08:29:00,
2013-06-26 04:34:00,66.2,65.9,29.91,SW,225,0.0,0.0,99,0.00,CLR,,0.00,WeatherDisplay:10.37,2013-06-26 08:34:00,
2013-06-26 04:39:00,66.0,65.7,29.91,SW,225,0.0,0.0,99,0.00,CLR,,0.00,WeatherDisplay:10.37,2013-06-26 08:39:00,
2013-06-26 04:44:00,66.0,65.7,29.92,SW,225,1.1,0.0,99,0.00,CLR,,0.00,WeatherDisplay:10.37,2013-06-26 08:44:00,
2013-06-26 04:49:00,65.8,65.6,29.92,SE,135,1.1,0.0,99,0.00,CLR,,0.00,WeatherDisplay:10.37,2013-06-26 08:49:00,
2013-06-26 04:54:00,65.8,65.6,29.93,West,270,1.6,0.0,99,0.00,CLR,,0.00,WeatherDisplay:10.37,2013-06-26 08:54:00,
2013-06-26 04:59:00,65.8,65.6,29.93,South,180,1.1,0.0,99,0.00,CLR,,0.00,WeatherDisplay:10.37,2013-06-26 08:59:00,
2013-06-26 05:04:00,65.8,65.6,29.93,South,180,1.1,0.0,99,0.00,BKN,,0.00,WeatherDisplay:10.37,2013-06-26 09:04:00,
2013-06-26 05:09:00,65.8,65.6,29.93,SW,225,1.1,0.0,99,0.00,BKN,,0.00,WeatherDisplay:10.37,2013-06-26 09:09:00,
2013-06-26 05:14:00,65.8,65.6,29.93,SW,225,0.0,0.0,99,0.00,BKN,,0.00,WeatherDisplay:10.37,2013-06-26 09:14:00,
2013-06-26 05:19:00,65.7,65.4,29.93,SW,225,0.0,0.0,99,0.00,BKN,,0.00,WeatherDisplay:10.37,2013-06-26 09:19:00,
2013-06-26 05:24:00,65.7,65.4,29.92,SW,225,0.0,0.0,99,0.00,BKN,,0.00,WeatherDisplay:10.37,2013-06-26 09:24:00,
2013-06-26 05:29:00,65.7,65.4,29.92,SW,225,0.0,0.0,99,0.00,BKN,,0.00,WeatherDisplay:10.37,2013-06-26 09:29:00,
2013-06-26 05:34:00,65.7,65.4,29.92,SW,225,0.0,0.0,99,0.00,BKN,,0.00,WeatherDisplay:10.37,2013-06-26 09:34:00,
2013-06-26 05:39:00,65.7,65.4,29.92,SW,225,1.1,0.0,99,0.00,BKN,,0.00,WeatherDisplay:10.37,2013-06-26 09:39:00,
2013-06-26 05:44:00,65.7,65.4,29.92,SW,225,1.1,0.0,99,0.00,BKN,,0.00,WeatherDisplay:10.37,2013-06-26 09:44:00,
2013-06-26 05:49:00,65.7,65.4,29.91,SW,225,1.1,0.0,99,0.00,BKN,,0.00,WeatherDisplay:10.37,2013-06-26 09:49:00,
2013-06-26 05:54:00,65.5,65.2,29.91,SW,225,0.0,0.0,99,0.00,BKN,,0.00,WeatherDisplay:10.37,2013-06-26 09:54:00,
2013-06-26 05:59:00,65.5,65.2,29.92,SW,225,0.0,0.0,99,0.00,BKN,,0.00,WeatherDisplay:10.37,2013-06-26 09:59:00,
2013-06-26 06:04:00,65.5,65.2,29.91,SW,225,0.0,0.0,99,0.00,CLR,,0.00,WeatherDisplay:10.37,2013-06-26 10:04:00,
2013-06-26 06:09:00,65.5,65.2,29.92,SW,225,1.1,0.0,99,0.00,CLR,,0.00,WeatherDisplay:10.37,2013-06-26 10:09:00,
2013-06-26 06:14:00,65.5,65.2,29.92,SW,225,0.0,0.0,99,0.00,CLR,,0.00,WeatherDisplay:10.37,2013-06-26 10:14:00,
2013-06-26 06:19:00,65.5,65.2,29.91,SW,225,1.1,0.0,99,0.00,CLR,,0.00,WeatherDisplay:10.37,2013-06-26 10:19:00,
2013-06-26 06:24:00,65.7,65.4,29.91,SW,225,0.0,0.0,99,0.00,CLR,,0.00,WeatherDisplay:10.37,2013-06-26 10:24:00,
2013-06-26 06:29:00,65.7,65.4,29.92,West,270,1.1,0.0,99,0.00,CLR,,0.00,WeatherDisplay:10.37,2013-06-26 10:29:00,
2013-06-26 06:34:00,65.8,65.6,29.92,West,270,0.0,0.0,99,0.00,CLR,,0.00,WeatherDisplay:10.37,2013-06-26 10:34:00,
2013-06-26 06:39:00,66.0,65.7,29.92,West,270,1.1,0.0,99,0.00,CLR,,0.00,WeatherDisplay:10.37,2013-06-26 10:39:00,
2013-06-26 06:44:00,66.2,65.9,29.92,West,270,1.1,1.1,99,0.00,CLR,,0.00,WeatherDisplay:10.37,2013-06-26 10:44:00,
2013-06-26 06:49:00,66.4,66.1,29.91,West,270,1.1,0.0,99,0.00,CLR,,0.00,WeatherDisplay:10.37,2013-06-26 10:49:00,
2013-06-26 06:54:00,66.7,66.5,29.92,West,270,0.0,0.0,99,0.00,CLR,,0.00,WeatherDisplay:10.37,2013-06-26 10:54:00,
2013-06-26 06:59:00,67.3,67.0,29.92,SW,225,1.1,0.0,99,0.00,CLR,,0.00,WeatherDisplay:10.37,2013-06-26 10:59:00,
2013-06-26 07:04:00,67.6,67.3,29.92,SW,225,1.1,0.0,99,0.00,SCT,,0.00,WeatherDisplay:10.37,2013-06-26 11:04:00,
2013-06-26 07:09:00,68.0,67.7,29.92,SW,225,1.1,0.0,99,0.00,SCT,,0.00,WeatherDisplay:10.37,2013-06-26 11:09:00,
2013-06-26 07:14:00,68.4,68.1,29.92,West,270,0.0,0.0,99,0.00,SCT,,0.00,WeatherDisplay:10.37,2013-06-26 11:14:00,
2013-06-26 07:19:00,68.9,68.6,29.93,West,270,0.0,0.0,99,0.00,SCT,,0.00,WeatherDisplay:10.37,2013-06-26 11:19:00,
2013-06-26 07:24:00,69.4,69.1,29.92,West,270,0.0,0.0,99,0.00,SCT,,0.00,WeatherDisplay:10.37,2013-06-26 11:24:00,
2013-06-26 07:29:00,70.5,69.6,29.92,West,270,1.1,0.0,97,0.00,SCT,,0.00,WeatherDisplay:10.37,2013-06-26 11:29:00,
2013-06-26 07:34:00,71.2,69.4,29.92,West,270,1.1,0.0,94,0.00,SCT,,0.00,WeatherDisplay:10.37,2013-06-26 11:34:00,
2013-06-26 07:39:00,71.8,69.3,29.92,West,270,1.1,0.0,92,0.00,SCT,,0.00,WeatherDisplay:10.37,2013-06-26 11:39:00,
2013-06-26 07:44:00,72.1,69.0,29.92,SW,225,1.1,0.0,90,0.00,SCT,,0.00,WeatherDisplay:10.37,2013-06-26 11:44:00,
2013-06-26 07:49:00,72.7,68.9,29.92,West,270,1.1,0.0,88,0.00,SCT,,0.00,WeatherDisplay:10.37,2013-06-26 11:49:00,
2013-06-26 07:54:00,74.1,69.3,29.92,SW,225,1.1,0.0,85,0.00,SCT,,0.00,WeatherDisplay:10.37,2013-06-26 11:54:00,
2013-06-26 07:59:00,75.0,69.1,29.92,West,270,1.1,0.0,82,0.00,SCT,,0.00,WeatherDisplay:10.37,2013-06-26 11:59:00,
2013-06-26 08:04:00,74.8,68.6,29.91,West,270,1.6,0.0,81,0.00,CLR,,0.00,WeatherDisplay:10.37,2013-06-26 12:04:00,
2013-06-26 08:09:00,74.8,69.0,29.92,West,270,1.1,0.0,82,0.00,CLR,,0.00,WeatherDisplay:10.37,2013-06-26 12:09:00,
2013-06-26 08:14:00,75.0,69.1,29.92,West,270,1.1,0.0,82,0.00,CLR,,0.00,WeatherDisplay:10.37,2013-06-26 12:14:00,
2013-06-26 08:19:00,76.5,70.2,29.92,SE,135,0.0,0.0,81,0.00,CLR,,0.00,WeatherDisplay:10.37,2013-06-26 12:19:00,
2013-06-26 08:24:00,78.3,70.5,29.92,West,270,1.1,0.0,77,0.00,CLR,,0.00,WeatherDisplay:10.37,2013-06-26 12:24:00,
2013-06-26 08:29:00,78.4,69.5,29.92,West,270,2.3,0.0,74,0.00,CLR,,0.00,WeatherDisplay:10.37,2013-06-26 12:29:00,
2013-06-26 08:34:00,77.5,69.0,29.92,West,270,1.1,0.0,75,0.00,CLR,,0.00,WeatherDisplay:10.37,2013-06-26 12:34:00,
2013-06-26 08:39:00,77.0,68.9,29.91,West,270,0.0,0.0,76,0.00,CLR,,0.00,WeatherDisplay:10.37,2013-06-26 12:39:00,
2013-06-26 08:44:00,77.7,69.2,29.91,West,270,1.1,0.0,75,0.00,CLR,,0.00,WeatherDisplay:10.37,2013-06-26 12:44:00,
2013-06-26 08:49:00,78.1,68.7,29.91,West,270,1.1,0.0,73,0.00,CLR,,0.00,WeatherDisplay:10.37,2013-06-26 12:49:00,
2013-06-26 08:54:00,78.3,68.9,29.91,West,270,2.3,0.0,73,0.00,CLR,,0.00,WeatherDisplay:10.37,2013-06-26 12:54:00,
2013-06-26 08:59:00,79.0,69.2,29.91,SE,135,2.3,0.0,72,0.00,CLR,,0.00,WeatherDisplay:10.37,2013-06-26 12:59:00,
2013-06-26 09:04:00,80.8,70.5,29.90,SW,225,1.1,0.0,71,0.00,CLR,,0.00,WeatherDisplay:10.37,2013-06-26 13:04:00,
2013-06-26 09:09:00,80.8,68.8,29.91,West,270,1.1,0.0,67,0.00,CLR,,0.00,WeatherDisplay:10.37,2013-06-26 13:09:00,
2013-06-26 09:14:00,81.1,69.1,29.91,West,270,1.1,0.0,67,0.00,CLR,,0.00,WeatherDisplay:10.37,2013-06-26 13:14:00,
2013-06-26 09:19:00,82.4,69.0,29.91,West,270,1.1,1.1,64,0.00,CLR,,0.00,WeatherDisplay:10.37,2013-06-26 13:19:00,
2013-06-26 09:24:00,82.9,69.0,29.91,West,270,1.1,0.0,63,0.00,CLR,,0.00,WeatherDisplay:10.37,2013-06-26 13:24:00,
2013-06-26 09:29:00,83.5,69.6,29.90,East,90,2.3,0.0,63,0.00,CLR,,0.00,WeatherDisplay:10.37,2013-06-26 13:29:00,
2013-06-26 09:34:00,84.4,69.9,29.90,West,270,1.1,0.0,62,0.00,CLR,,0.00,WeatherDisplay:10.37,2013-06-26 13:34:00,
2013-06-26 09:39:00,84.9,69.0,29.89,West,270,1.1,1.1,59,0.00,CLR,,0.00,WeatherDisplay:10.37,2013-06-26 13:39:00,
2013-06-26 09:44:00,85.1,69.2,29.89,SW,225,2.3,2.3,59,0.00,CLR,,0.00,WeatherDisplay:10.37,2013-06-26 13:44:00,
2013-06-26 09:49:00,85.5,69.5,29.89,West,270,2.3,2.3,59,0.00,CLR,,0.00,WeatherDisplay:10.37,2013-06-26 13:49:00,
2013-06-26 09:54:00,85.5,69.0,29.89,West,270,3.5,3.5,58,0.00,CLR,,0.00,WeatherDisplay:10.37,2013-06-26 13:54:00,
2013-06-26 09:59:00,85.5,69.5,29.89,West,270,3.5,3.5,59,0.00,CLR,,0.00,WeatherDisplay:10.37,2013-06-26 13:59:00,
2013-06-26 10:04:00,86.4,69.3,29.89,NW,315,2.3,2.3,57,0.00,CLR,,0.00,WeatherDisplay:10.37,2013-06-26 14:04:00,
2013-06-26 10:09:00,86.5,69.5,29.89,West,270,2.3,0.0,57,0.00,CLR,,0.00,WeatherDisplay:10.37,2013-06-26 14:09:00,
2013-06-26 10:14:00,86.9,70.3,29.89,West,270,2.3,0.0,58,0.00,CLR,,0.00,WeatherDisplay:10.37,2013-06-26 14:14:00,
2013-06-26 10:19:00,87.4,70.8,29.89,West,270,2.3,0.0,58,0.00,CLR,,0.00,WeatherDisplay:10.37,2013-06-26 14:19:00,
2013-06-26 10:24:00,88.0,70.8,29.89,West,270,2.3,0.0,57,0.00,CLR,,0.00,WeatherDisplay:10.37,2013-06-26 14:24:00,
2013-06-26 10:29:00,88.2,70.5,29.88,West,270,1.1,1.1,56,0.00,CLR,,0.00,WeatherDisplay:10.37,2013-06-26 14:29:00,
2013-06-26 10:34:00,88.3,70.7,29.88,West,270,2.3,2.3,56,0.00,CLR,,0.00,WeatherDisplay:10.37,2013-06-26 14:34:00,
2013-06-26 10:39:00,88.3,70.1,29.88,West,270,2.3,2.3,55,0.00,CLR,,0.00,WeatherDisplay:10.37,2013-06-26 14:39:00,
2013-06-26 10:44:00,88.3,70.7,29.88,West,270,1.1,1.1,56,0.00,CLR,,0.00,WeatherDisplay:10.37,2013-06-26 14:44:00,
2013-06-26 10:50:00,89.1,70.8,29.88,NW,315,3.5,0.0,55,0.00,CLR,,0.00,WeatherDisplay:10.37,2013-06-26 14:50:00,
2013-06-26 10:55:00,89.4,71.1,29.88,West,270,1.1,1.1,55,0.00,CLR,,0.00,WeatherDisplay:10.37,2013-06-26 14:55:00,
2013-06-26 11:00:00,89.2,71.0,29.88,West,270,3.5,3.5,55,0.00,CLR,,0.00,WeatherDisplay:10.37,2013-06-26 15:00:00,
2013-06-26 11:05:00,89.2,71.5,29.87,SE,135,3.5,3.5,56,0.00,CLR,,0.00,WeatherDisplay:10.37,2013-06-26 15:05:00,
2013-06-26 11:10:00,89.8,72.0,29.88,West,270,1.1,0.0,56,0.00,CLR,,0.00,WeatherDisplay:10.37,2013-06-26 15:10:00,
2013-06-26 11:15:00,90.0,71.1,29.88,West,270,3.5,3.5,54,0.00,CLR,,0.00,WeatherDisplay:10.37,2013-06-26 15:15:00,
2013-06-26 11:20:00,88.9,70.6,29.88,NW,315,4.6,4.6,55,0.00,CLR,,0.00,WeatherDisplay:10.37,2013-06-26 15:20:00,
2013-06-26 11:25:00,89.4,71.7,29.88,South,180,3.5,3.5,56,0.00,CLR,,0.00,WeatherDisplay:10.37,2013-06-26 15:25:00,
2013-06-26 11:30:00,89.1,71.3,29.88,West,270,2.3,0.0,56,0.00,CLR,,0.00,WeatherDisplay:10.37,2013-06-26 15:30:00,
2013-06-26 11:35:00,88.2,71.5,29.88,West,270,2.3,0.0,58,0.00,CLR,,0.00,WeatherDisplay:10.37,2013-06-26 15:35:00,
2013-06-26 11:40:00,86.7,71.7,29.88,West,270,2.3,2.3,61,0.00,CLR,,0.00,WeatherDisplay:10.37,2013-06-26 15:40:00,
2013-06-26 11:45:00,84.9,70.9,29.88,West,270,2.3,2.3,63,0.00,CLR,,0.00,WeatherDisplay:10.37,2013-06-26 15:45:00,
2013-06-26 11:50:00,83.8,70.8,29.88,West,270,1.1,0.0,65,0.00,CLR,,0.00,WeatherDisplay:10.37,2013-06-26 15:50:00,
2013-06-26 11:55:00,83.5,71.8,29.88,West,270,1.1,0.0,68,0.00,CLR,,0.00,WeatherDisplay:10.37,2013-06-26 15:55:00,
2013-06-26 12:00:00,83.7,72.4,29.88,West,270,1.1,0.0,69,0.00,CLR,,0.00,WeatherDisplay:10.37,2013-06-26 16:00:00,
2013-06-26 12:05:00,84.2,72.9,29.88,West,270,1.1,0.0,69,0.00,CLR,,0.00,WeatherDisplay:10.37,2013-06-26 16:05:00,
2013-06-26 12:10:00,85.1,73.3,29.88,West,270,1.1,1.1,68,0.00,CLR,,0.00,WeatherDisplay:10.37,2013-06-26 16:10:00,
2013-06-26 12:15:00,85.6,73.0,29.88,West,270,2.3,2.3,66,0.00,CLR,,0.00,WeatherDisplay:10.37,2013-06-26 16:15:00,
2013-06-26 12:20:00,85.8,73.1,29.88,West,270,1.1,0.0,66,0.00,CLR,,0.00,WeatherDisplay:10.37,2013-06-26 16:20:00,
2013-06-26 12:25:00,86.0,72.9,29.88,SW,225,1.1,0.0,65,0.00,CLR,,0.00,WeatherDisplay:10.37,2013-06-26 16:25:00,
2013-06-26 12:30:00,86.0,73.8,29.88,West,270,1.1,0.0,67,0.00,CLR,,0.00,WeatherDisplay:10.37,2013-06-26 16:30:00,
2013-06-26 12:35:00,86.4,73.7,29.88,North,0,2.3,0.0,66,0.00,CLR,,0.00,WeatherDisplay:10.37,2013-06-26 16:35:00,
2013-06-26 12:40:00,86.9,73.7,29.88,West,270,1.1,1.1,65,0.00,CLR,,0.00,WeatherDisplay:10.37,2013-06-26 16:40:00,
2013-06-26 12:45:00,87.3,74.1,29.88,West,270,2.3,0.0,65,0.00,CLR,,0.00,WeatherDisplay:10.37,2013-06-26 16:45:00,
2013-06-26 12:50:00,87.8,74.6,29.88,West,270,2.3,2.3,65,0.00,CLR,,0.00,WeatherDisplay:10.37,2013-06-26 16:50:00,
2013-06-26 12:55:00,88.0,74.7,29.88,West,270,2.3,0.0,65,0.00,CLR,,0.00,WeatherDisplay:10.37,2013-06-26 16:55:00,
2013-06-26 13:00:00,88.7,74.0,29.88,West,270,2.3,2.3,62,0.00,CLR,,0.00,WeatherDisplay:10.37,2013-06-26 17:00:00,
2013-06-26 13:05:00,89.1,74.3,29.87,West,270,1.1,1.1,62,0.00,CLR,,0.00,WeatherDisplay:10.37,2013-06-26 17:05:00,
2013-06-26 13:10:00,90.0,75.2,29.87,West,270,1.1,1.1,62,0.00,CLR,,0.00,WeatherDisplay:10.37,2013-06-26 17:10:00,
2013-06-26 13:15:00,90.5,75.2,29.87,West,270,1.1,1.1,61,0.00,CLR,,0.00,WeatherDisplay:10.37,2013-06-26 17:15:00,
2013-06-26 13:20:00,90.9,74.0,29.86,West,270,3.5,3.5,58,0.00,CLR,,0.00,WeatherDisplay:10.37,2013-06-26 17:20:00,
2013-06-26 13:25:00,90.0,74.2,29.86,West,270,3.5,3.5,60,0.00,CLR,,0.00,WeatherDisplay:10.37,2013-06-26 17:25:00,
2013-06-26 13:30:00,89.2,74.0,29.86,West,270,1.1,0.0,61,0.00,CLR,,0.00,WeatherDisplay:10.37,2013-06-26 17:30:00,
2013-06-26 13:35:00,89.1,74.3,29.86,West,270,1.1,0.0,62,0.00,CLR,,0.00,WeatherDisplay:10.37,2013-06-26 17:35:00,
2013-06-26 13:40:00,88.3,74.6,29.86,West,270,1.1,0.0,64,0.00,CLR,,0.00,WeatherDisplay:10.37,2013-06-26 17:40:00,
2013-06-26 13:45:00,88.3,74.6,29.86,East,90,1.1,0.0,64,0.00,CLR,,0.00,WeatherDisplay:10.37,2013-06-26 17:45:00,
2013-06-26 13:50:00,88.3,75.1,29.86,West,270,1.1,0.0,65,0.00,CLR,,0.00,WeatherDisplay:10.37,2013-06-26 17:50:00,
2013-06-26 13:55:00,89.2,75.9,29.86,West,270,1.1,0.0,65,0.00,CLR,,0.00,WeatherDisplay:10.37,2013-06-26 17:55:00,
2013-06-26 14:00:00,90.7,75.4,29.86,West,270,2.3,0.0,61,0.00,CLR,,0.00,WeatherDisplay:10.37,2013-06-26 18:00:00,
2013-06-26 14:05:00,91.6,74.7,29.85,West,270,1.6,0.0,58,0.00,CLR,,0.00,WeatherDisplay:10.37,2013-06-26 18:05:00,
2013-06-26 14:10:00,91.6,74.2,29.85,West,270,1.1,0.0,57,0.00,CLR,,0.00,WeatherDisplay:10.37,2013-06-26 18:10:00,
2013-06-26 14:15:00,91.2,74.9,29.85,West,270,1.1,1.1,59,0.00,CLR,,0.00,WeatherDisplay:10.37,2013-06-26 18:15:00,
2013-06-26 14:20:00,90.7,73.4,29.85,West,270,3.5,3.5,57,0.00,SCT,,0.00,WeatherDisplay:10.37,2013-06-26 18:20:00,
2013-06-26 14:25:00,91.4,74.5,29.85,West,270,2.3,2.3,58,0.00,SCT,,0.00,WeatherDisplay:10.37,2013-06-26 18:25:00,
2013-06-26 14:30:00,91.0,73.2,29.84,West,270,1.1,1.1,56,0.00,SCT,,0.00,WeatherDisplay:10.37,2013-06-26 18:30:00,
2013-06-26 14:35:00,91.4,74.0,29.85,West,270,3.5,3.5,57,0.00,SCT,,0.00,WeatherDisplay:10.37,2013-06-26 18:35:00,
2013-06-26 14:40:00,91.9,72.9,29.85,West,270,4.6,4.6,54,0.00,SCT,,0.00,WeatherDisplay:10.37,2013-06-26 18:40:00,
2013-06-26 14:45:00,92.3,72.7,29.85,West,270,3.5,3.5,53,0.00,SCT,,0.00,WeatherDisplay:10.37,2013-06-26 18:45:00,
2013-06-26 14:50:00,92.3,72.1,29.85,West,270,4.6,4.6,52,0.00,SCT,,0.00,WeatherDisplay:10.37,2013-06-26 18:50:00,
2013-06-26 14:55:00,91.9,71.8,29.85,West,270,2.3,2.3,52,0.00,SCT,,0.00,WeatherDisplay:10.37,2013-06-26 18:55:00,
2013-06-26 15:00:00,92.5,71.7,29.85,North,0,3.5,3.5,51,0.00,SCT,,0.00,WeatherDisplay:10.37,2013-06-26 19:00:00,
2013-06-26 15:05:00,92.7,71.9,29.85,SW,225,3.5,3.5,51,0.00,BKN,,0.00,WeatherDisplay:10.37,2013-06-26 19:05:00,
2013-06-26 15:10:00,92.3,71.6,29.85,West,270,3.5,3.5,51,0.00,BKN,,0.00,WeatherDisplay:10.37,2013-06-26 19:10:00,
2013-06-26 15:15:00,91.4,71.3,29.84,West,270,3.5,3.5,52,0.00,BKN,,0.00,WeatherDisplay:10.37,2013-06-26 19:15:00,
2013-06-26 15:20:00,91.8,72.7,29.83,SW,225,5.8,5.8,54,0.00,BKN,,0.00,WeatherDisplay:10.37,2013-06-26 19:20:00,
2013-06-26 15:25:00,91.6,70.9,29.83,West,270,3.5,3.5,51,0.00,BKN,,0.00,WeatherDisplay:10.37,2013-06-26 19:25:00,
2013-06-26 15:30:00,91.4,69.6,29.83,West,270,3.5,3.5,49,0.00,BKN,,0.00,WeatherDisplay:10.37,2013-06-26 19:30:00,
2013-06-26 15:35:00,90.9,70.2,29.83,West,270,3.5,3.5,51,0.00,BKN,,0.00,WeatherDisplay:10.37,2013-06-26 19:35:00,
2013-06-26 15:40:00,91.0,69.8,29.83,West,270,4.6,4.6,50,0.00,BKN,,0.00,WeatherDisplay:10.37,2013-06-26 19:40:00,
2013-06-26 15:45:00,90.3,68.0,29.83,NW,315,2.3,2.3,48,0.00,BKN,,0.00,WeatherDisplay:10.37,2013-06-26 19:45:00,
2013-06-26 15:51:00,89.4,67.7,29.83,West,270,3.5,3.5,49,0.00,BKN,,0.00,WeatherDisplay:10.37,2013-06-26 19:51:00,
2013-06-26 15:56:00,88.6,68.2,29.82,West,276,1.0,4.0,51,0.00,BKN,,0.00,WeatherDisplay:10.37,2013-06-26 19:56:00,
2013-06-26 16:01:00,88.0,68.7,29.83,West,270,1.0,5.0,53,0.00,BKN,,0.00,WeatherDisplay:10.37,2013-06-26 20:01:00,
2013-06-26 16:06:00,87.6,68.9,29.83,West,270,3.5,3.5,54,0.00,BKN,,0.00,WeatherDisplay:10.37,2013-06-26 20:06:00,
2013-06-26 16:11:00,87.1,69.0,29.83,West,270,4.6,4.6,55,0.00,BKN,,0.00,WeatherDisplay:10.37,2013-06-26 20:11:00,
2013-06-26 16:16:00,86.5,69.0,29.82,West,270,3.5,3.5,56,0.00,BKN,,0.00,WeatherDisplay:10.37,2013-06-26 20:16:00,
2013-06-26 16:21:00,86.0,69.0,29.82,West,270,3.5,3.5,57,0.00,BKN,,0.00,WeatherDisplay:10.37,2013-06-26 20:21:00,
2013-06-26 16:26:00,85.6,69.7,29.83,West,270,3.5,3.5,59,0.00,BKN,,0.00,WeatherDisplay:10.37,2013-06-26 20:26:00,
2013-06-26 16:31:00,85.5,69.5,29.83,West,270,4.6,4.6,59,0.00,BKN,,0.00,WeatherDisplay:10.37,2013-06-26 20:31:00,
2013-06-26 16:36:00,84.7,69.3,29.83,West,270,3.5,3.5,60,0.00,BKN,,0.00,WeatherDisplay:10.37,2013-06-26 20:36:00,
2013-06-26 16:41:00,84.2,68.3,29.83,NW,315,3.5,3.5,59,0.00,BKN,,0.00,WeatherDisplay:10.37,2013-06-26 20:41:00,
2013-06-26 16:46:00,83.7,68.3,29.83,West,270,3.5,3.5,60,0.00,BKN,,0.00,WeatherDisplay:10.37,2013-06-26 20:46:00,
2013-06-26 16:51:00,83.3,67.5,29.83,West,270,3.5,3.5,59,0.00,BKN,,0.00,WeatherDisplay:10.37,2013-06-26 20:51:00,
2013-06-26 16:56:00,83.1,67.8,29.83,West,270,3.5,3.5,60,0.00,BKN,,0.00,WeatherDisplay:10.37,2013-06-26 20:56:00,
2013-06-26 17:01:00,82.8,68.0,29.83,West,270,1.0,3.0,61,0.00,BKN,,0.00,WeatherDisplay:10.37,2013-06-26 21:01:00,
2013-06-26 17:06:00,82.6,68.2,29.83,West,270,3.5,3.5,62,0.00,-RA,,0.00,WeatherDisplay:10.37,2013-06-26 21:06:00,
2013-06-26 17:11:00,82.6,68.7,29.83,West,270,2.3,2.3,63,0.00,-RA,,0.00,WeatherDisplay:10.37,2013-06-26 21:11:00,
2013-06-26 17:16:00,82.4,69.0,29.83,West,270,2.3,2.3,64,0.00,-RA,,0.00,WeatherDisplay:10.37,2013-06-26 21:16:00,
2013-06-26 17:21:00,82.2,69.3,29.83,West,270,3.5,3.5,65,0.00,-RA,,0.00,WeatherDisplay:10.37,2013-06-26 21:21:00,
2013-06-26 17:26:00,82.4,69.4,29.83,West,270,1.1,0.0,65,0.00,-RA,,0.00,WeatherDisplay:10.37,2013-06-26 21:26:00,
2013-06-26 17:31:00,82.6,69.6,29.83,West,270,2.3,0.0,65,0.00,-RA,,0.00,WeatherDisplay:10.37,2013-06-26 21:31:00,
2013-06-26 17:36:00,82.4,69.9,29.83,NE,45,3.5,0.0,66,0.00,-RA,,0.00,WeatherDisplay:10.37,2013-06-26 21:36:00,
2013-06-26 17:41:00,82.0,69.6,29.83,West,270,1.1,0.0,66,0.00,-RA,,0.00,WeatherDisplay:10.37,2013-06-26 21:41:00,
2013-06-26 17:46:00,81.9,69.8,29.83,West,270,1.1,0.0,67,0.00,-RA,,0.00,WeatherDisplay:10.37,2013-06-26 21:46:00,
2013-06-26 17:51:00,81.9,70.3,29.83,West,270,0.0,0.0,68,0.00,-RA,,0.00,WeatherDisplay:10.37,2013-06-26 21:51:00,
2013-06-26 17:56:00,81.9,70.3,29.83,West,270,1.1,0.0,68,0.00,-RA,,0.00,WeatherDisplay:10.37,2013-06-26 21:56:00,
2013-06-26 18:01:00,81.9,70.7,29.83,West,270,1.0,2.0,69,0.00,-RA,,0.00,WeatherDisplay:10.37,2013-06-26 22:01:00,
2013-06-26 18:06:00,81.5,71.6,29.83,West,270,3.5,3.5,72,0.00,-RA,,0.00,WeatherDisplay:10.37,2013-06-26 22:06:00,
2013-06-26 18:11:00,80.8,70.9,29.83,West,270,4.6,4.6,72,0.00,-RA,,0.00,WeatherDisplay:10.37,2013-06-26 22:11:00,
2013-06-26 18:16:00,79.7,70.3,29.83,West,270,4.6,4.6,73,0.00,-RA,,0.00,WeatherDisplay:10.37,2013-06-26 22:16:00,
2013-06-26 18:21:00,79.2,70.9,29.83,West,270,4.6,4.6,76,0.00,-RA,,0.00,WeatherDisplay:10.37,2013-06-26 22:21:00,
2013-06-26 18:26:00,78.6,70.8,29.84,West,270,3.5,3.5,77,0.00,-RA,,0.00,WeatherDisplay:10.37,2013-06-26 22:26:00,
2013-06-26 18:31:00,78.1,71.0,29.83,West,270,3.5,3.5,79,0.00,-RA,,0.00,WeatherDisplay:10.37,2013-06-26 22:31:00,
2013-06-26 18:36:00,78.1,71.4,29.83,West,270,2.3,2.3,80,0.00,-RA,,0.00,WeatherDisplay:10.37,2013-06-26 22:36:00,
2013-06-26 18:41:00,78.1,71.4,29.83,West,270,3.5,3.5,80,0.00,-RA,,0.00,WeatherDisplay:10.37,2013-06-26 22:41:00,
2013-06-26 18:46:00,78.6,71.9,29.83,West,270,2.3,0.0,80,0.00,-RA,,0.00,WeatherDisplay:10.37,2013-06-26 22:46:00,
2013-06-26 18:51:00,79.5,72.1,29.83,West,270,3.5,3.5,78,0.00,-RA,,0.00,WeatherDisplay:10.37,2013-06-26 22:51:00,
2013-06-26 18:56:00,80.2,72.4,29.83,West,270,1.6,1.6,77,0.00,-RA,,0.00,WeatherDisplay:10.37,2013-06-26 22:56:00,
2013-06-26 19:01:00,80.4,72.2,29.83,West,270,1.0,3.0,76,0.00,-RA,,0.00,WeatherDisplay:10.37,2013-06-26 23:01:00,
2013-06-26 19:06:00,80.2,71.2,29.82,West,270,2.3,0.0,74,0.00,FEW,,0.00,WeatherDisplay:10.37,2013-06-26 23:06:00,
2013-06-26 19:11:00,80.2,71.2,29.83,SW,225,1.1,0.0,74,0.00,FEW,,0.00,WeatherDisplay:10.37,2013-06-26 23:11:00,
2013-06-26 19:16:00,80.4,71.8,29.83,West,270,3.5,0.0,75,0.00,FEW,,0.00,WeatherDisplay:10.37,2013-06-26 23:16:00,
2013-06-26 19:21:00,80.6,71.5,29.83,West,270,3.5,3.5,74,0.00,FEW,,0.00,WeatherDisplay:10.37,2013-06-26 23:21:00,
2013-06-26 19:26:00,80.1,71.0,29.83,West,270,2.3,2.3,74,0.00,FEW,,0.00,WeatherDisplay:10.37,2013-06-26 23:26:00,
2013-06-26 19:31:00,79.7,71.1,29.83,West,270,2.3,2.3,75,0.00,FEW,,0.00,WeatherDisplay:10.37,2013-06-26 23:31:00,
2013-06-26 19:36:00,79.2,70.9,29.84,West,270,2.3,2.3,76,0.00,FEW,,0.00,WeatherDisplay:10.37,2013-06-26 23:36:00,
2013-06-26 19:41:00,79.0,71.2,29.84,West,270,2.3,2.3,77,0.00,FEW,,0.00,WeatherDisplay:10.37,2013-06-26 23:41:00,
2013-06-26 19:46:00,78.4,71.0,29.83,West,270,1.1,1.1,78,0.00,FEW,,0.00,WeatherDisplay:10.37,2013-06-26 23:46:00,
2013-06-26 19:51:00,78.1,70.7,29.83,West,270,1.6,1.6,78,0.00,FEW,,0.00,WeatherDisplay:10.37,2013-06-26 23:51:00,
2013-06-26 19:56:00,77.7,70.7,29.83,West,270,1.1,0.0,79,0.00,FEW,,0.00,WeatherDisplay:10.37,2013-06-26 23:56:00,
2013-06-26 20:01:00,77.6,70.5,29.83,West,270,0.0,2.0,79,0.00,FEW,,0.00,WeatherDisplay:10.37,2013-06-27 00:01:00,
2013-06-26 20:06:00,77.4,70.7,29.83,West,270,1.1,1.1,80,0.00,FEW,,0.00,WeatherDisplay:10.37,2013-06-27 00:06:00,
2013-06-26 20:11:00,77.2,70.5,29.83,West,270,1.1,0.0,80,0.00,FEW,,0.00,WeatherDisplay:10.37,2013-06-27 00:11:00,
2013-06-26 20:16:00,77.0,70.4,29.83,West,270,0.0,0.0,80,0.00,FEW,,0.00,WeatherDisplay:10.37,2013-06-27 00:16:00,
2013-06-26 20:21:00,77.0,70.7,29.83,West,270,0.0,0.0,81,0.00,FEW,,0.00,WeatherDisplay:10.37,2013-06-27 00:21:00,
2013-06-26 20:26:00,76.8,70.5,29.83,West,270,1.1,1.1,81,0.00,FEW,,0.00,WeatherDisplay:10.37,2013-06-27 00:26:00,
2013-06-26 20:31:00,76.6,70.4,29.83,West,270,0.0,0.0,81,0.00,FEW,,0.00,WeatherDisplay:10.37,2013-06-27 00:31:00,
2013-06-26 20:36:00,76.3,70.4,29.83,West,270,0.0,0.0,82,0.00,FEW,,0.00,WeatherDisplay:10.37,2013-06-27 00:36:00,
2013-06-26 20:41:00,76.1,70.2,29.84,West,270,0.0,0.0,82,0.00,FEW,,0.00,WeatherDisplay:10.37,2013-06-27 00:41:00,
2013-06-26 20:46:00,75.9,70.4,29.84,West,270,0.0,0.0,83,0.00,FEW,,0.00,WeatherDisplay:10.37,2013-06-27 00:46:00,
2013-06-26 20:51:00,75.6,70.4,29.84,West,270,0.0,0.0,84,0.00,FEW,,0.00,WeatherDisplay:10.37,2013-06-27 00:51:00,
2013-06-26 20:56:00,75.4,70.2,29.84,West,270,0.0,0.0,84,0.00,FEW,,0.00,WeatherDisplay:10.37,2013-06-27 00:56:00,
2013-06-26 21:01:00,75.2,70.4,29.84,West,270,0.0,0.0,85,0.00,FEW,,0.00,WeatherDisplay:10.37,2013-06-27 01:01:00,
2013-06-26 21:06:00,75.0,70.2,29.84,West,270,0.0,0.0,85,0.00,CLR,,0.00,WeatherDisplay:10.37,2013-06-27 01:06:00,
2013-06-26 21:11:00,74.8,70.4,29.84,West,270,0.0,0.0,86,0.00,CLR,,0.00,WeatherDisplay:10.37,2013-06-27 01:11:00,
2013-06-26 21:16:00,74.7,70.2,29.85,West,270,1.1,0.0,86,0.00,CLR,,0.00,WeatherDisplay:10.37,2013-06-27 01:16:00,
2013-06-26 21:21:00,74.7,70.5,29.85,West,270,1.1,0.0,87,0.00,CLR,,0.00,WeatherDisplay:10.37,2013-06-27 01:21:00,
2013-06-26 21:26:00,74.7,70.9,29.85,West,270,2.3,2.3,88,0.00,CLR,,0.00,WeatherDisplay:10.37,2013-06-27 01:26:00,
2013-06-26 21:31:00,74.5,70.7,29.85,West,270,1.1,1.1,88,0.00,CLR,,0.00,WeatherDisplay:10.37,2013-06-27 01:31:00,
2013-06-26 21:36:00,74.7,70.9,29.85,West,270,1.1,1.1,88,0.00,CLR,,0.00,WeatherDisplay:10.37,2013-06-27 01:36:00,
2013-06-26 21:41:00,74.7,70.5,29.85,West,270,1.1,0.0,87,0.00,CLR,,0.00,WeatherDisplay:10.37,2013-06-27 01:41:00,
2013-06-26 21:46:00,74.7,70.5,29.85,West,270,0.0,0.0,87,0.00,CLR,,0.00,WeatherDisplay:10.37,2013-06-27 01:46:00,
2013-06-26 21:51:00,74.3,70.8,29.85,SE,135,2.3,2.3,89,0.00,CLR,,0.00,WeatherDisplay:10.37,2013-06-27 01:51:00,
2013-06-26 21:56:00,74.1,70.7,29.85,East,90,2.3,2.3,89,0.00,CLR,,0.00,WeatherDisplay:10.37,2013-06-27 01:56:00,
2013-06-26 22:01:00,73.9,70.8,29.85,East,90,3.5,3.5,90,0.00,CLR,,0.00,WeatherDisplay:10.37,2013-06-27 02:01:00,
2013-06-26 22:06:00,73.9,70.8,29.85,SE,135,2.3,0.0,90,0.00,CLR,,0.00,WeatherDisplay:10.37,2013-06-27 02:06:00,
2013-06-26 22:11:00,73.9,70.8,29.85,East,90,0.0,0.0,90,0.00,CLR,,0.00,WeatherDisplay:10.37,2013-06-27 02:11:00,
2013-06-26 22:16:00,73.8,70.6,29.84,SW,225,1.1,0.0,90,0.00,CLR,,0.00,WeatherDisplay:10.37,2013-06-27 02:16:00,
2013-06-26 22:21:00,73.6,70.5,29.85,SW,225,0.0,0.0,90,0.00,CLR,,0.00,WeatherDisplay:10.37,2013-06-27 02:21:00,
2013-06-26 22:26:00,73.4,70.3,29.85,SW,225,0.0,0.0,90,0.00,CLR,,0.00,WeatherDisplay:10.37,2013-06-27 02:26:00,
2013-06-26 22:31:00,73.2,70.4,29.84,SW,225,0.0,0.0,91,0.00,CLR,,0.00,WeatherDisplay:10.37,2013-06-27 02:31:00,
2013-06-26 22:36:00,73.2,70.4,29.84,SW,225,0.0,0.0,91,0.00,CLR,,0.00,WeatherDisplay:10.37,2013-06-27 02:36:00,
2013-06-26 22:41:00,73.0,70.6,29.85,East,90,0.0,0.0,92,0.00,CLR,,0.00,WeatherDisplay:10.37,2013-06-27 02:41:00,
2013-06-26 22:46:00,72.9,70.4,29.84,East,90,0.0,0.0,92,0.00,CLR,,0.00,WeatherDisplay:10.37,2013-06-27 02:46:00,
2013-06-26 22:51:00,72.9,70.4,29.84,East,90,0.0,0.0,92,0.00,CLR,,0.00,WeatherDisplay:10.37,2013-06-27 02:51:00,
2013-06-26 22:56:00,72.7,70.5,29.84,East,90,0.0,0.0,93,0.00,CLR,,0.00,WeatherDisplay:10.37,2013-06-27 02:56:00,
2013-06-26 23:01:00,72.5,70.4,29.84,East,90,0.0,0.0,93,0.00,CLR,,0.00,WeatherDisplay:10.37,2013-06-27 03:01:00,
2013-06-26 23:06:00,72.3,70.2,29.84,East,90,0.0,0.0,93,0.00,CLR,,0.00,WeatherDisplay:10.37,2013-06-27 03:06:00,
2013-06-26 23:11:00,72.1,70.3,29.84,West,270,0.0,0.0,94,0.00,CLR,,0.00,WeatherDisplay:10.37,2013-06-27 03:11:00,
2013-06-26 23:16:00,72.1,70.3,29.84,West,270,0.0,0.0,94,0.00,CLR,,0.00,WeatherDisplay:10.37,2013-06-27 03:16:00,
2013-06-26 23:21:00,72.1,70.6,29.83,West,270,0.0,0.0,95,0.00,CLR,,0.00,WeatherDisplay:10.37,2013-06-27 03:21:00,
2013-06-26 23:26:00,72.0,70.4,29.83,East,90,0.0,0.0,95,0.00,CLR,,0.00,WeatherDisplay:10.37,2013-06-27 03:26:00,
2013-06-26 23:31:00,71.8,70.6,29.84,East,90,0.0,0.0,96,0.00,CLR,,0.00,WeatherDisplay:10.37,2013-06-27 03:31:00,
2013-06-26 23:36:00,71.8,70.6,29.83,East,90,0.0,0.0,96,0.00,CLR,,0.00,WeatherDisplay:10.37,2013-06-27 03:36:00,
2013-06-26 23:41:00,71.6,70.7,29.83,East,90,0.0,0.0,97,0.00,CLR,,0.00,WeatherDisplay:10.37,2013-06-27 03:41:00,
2013-06-26 23:46:00,71.6,70.7,29.83,East,90,0.0,0.0,97,0.00,CLR,,0.00,WeatherDisplay:10.37,2013-06-27 03:46:00,
2013-06-26 23:51:00,71.4,70.8,29.84,East,90,0.0,0.0,98,0.00,CLR,,0.00,WeatherDisplay:10.37,2013-06-27 03:51:00,
2013-06-26 23:56:00,71.4,70.8,29.83,East,90,0.0,0.0,98,0.00,CLR,,0.00,WeatherDisplay:10.37,2013-06-27 03:56:00,